Location: Niedergestelen
(46.3129°N, 7.7822°E)
Time: 06:49:46
(UTC+00:00)

YAOGAN 1 - Visible Passes

Search period start: 14 April 2021 00:00
Search period end: 24 April 2021 00:00
Orbit: 618 x 620 km, 97.9° (Epoch: 12 April)

Date Brightness Start Highest point End Pass type
(mag) Time Alt. Az. Time Alt. Az. Time Alt. Az.
15 Apr 4.0 18:40:57 10° S 18:45:03 43° W 18:49:12 10° NNW visible
16 Apr 4.7 18:58:27 10° SSW 19:02:12 29° W 19:05:59 10° NW visible
17 Apr 5.3 19:16:14 10° SW 19:19:24 20° W 19:22:36 10° NW visible
18 Apr 5.6 19:34:30 10° WSW 19:36:39 13° W 19:38:48 10° WNW visible
22 Apr 5.0 19:04:57 10° SSW 19:08:33 25° W 19:12:09 10° NW visible
23 Apr 5.4 19:22:53 10° SW 19:25:46 17° W 19:28:39 10° NW visible
